Find OneWeb SL0064

NORAD ID: 45433 Int'l Des: 2020-020 Owner: ONEWEB Country: UK Constellation: oneweb operational
又名: ONEWEB-0064 spacetrack, celestrak
LEOCIRCULARPOLARONEWEB_TYPE

当前视图

正在加载3D地球...

About OneWeb SL0064

OneWeb SL0064 (NORAD 45433) is a oneweb constellation satellite launched Mar 21, 2020 by ONEWEB of UK. It operates in LEO, CIRCULAR, POLAR, ONEWEB_TYPE orbit with a mass of 148.00 kg.

即将过境

Passes for default location (London). Set your location on the main map for personalized predictions.

高度历史

Loading altitude history...

两行轨道根数

1 45433U 20020K 26265.69296332 -.00000372 00000-0 -10844-2 0 9997
2 45433 87.8973 1.6861 0001611 101.6249 258.5060 13.11418655315467
Epoch: Sep 22, 2026 • Age: 11 hours

当前状态

高度 1225.7 km
远地点 / 近地点 N/A
速度 7.25 km/s
星下点 53.88°N, 55.92°W
发射日期 Mar 21, 2020
运行时间 6.5 years
类型 internet

技术详情

分类 Payload
质量 148.00 kg
干质量 140.00 kg
长度 1.30 m
直径 1.00 m
跨度 5.00 m
形状 ? Trapezoid+2 pan
制造商 ONEWUS
平台类型 ARROW
阶段状态 In Orbit
所有者/国家 ONEWEB/UK

Most Searched